[[{"header":{"parameterUnit":"m.s-1","parameterCategory":2,"la1":30.2992,"la2":30.254,"lo1":-89.0895,"lo2":-89.0443,"dy":0.0025,"dx":0.0025,"nx":19,"ny":19,"refTime":"2026-04-09T21:00:00:Z","depth":"0","parameterNumber":2,"parameterNumberName":"U-component_of_CURRENTS"},"data":[0,0,0,0.4613,0.4615,0.4715,0.4715,0.4756,0.4757,0,0,0,0,0,0,0,0,0,0,0,0.4564,0.4565,0.4612,0.4615,0.4715,0.4715,0.4756,0.4757,0,0,0,0,0,0,0,0,0,0,0,0.4564,0.4565,0.4566,0.4616,0.4715,0.4715,0.4756,0.47,0,0,0,0,0,0,0,0,0,0,0.4613,0.4586,0.4565,0.4566,0.4617,0.4715,0.4715,0.4698,0.4703,0.4691,0,0.4709,0,0.4744,0.4758,0.4759,0,0,0,0.4603,0.4582,0.4612,0.4566,0.4618,0.4714,0.4666,0.4701,0.4707,0.4697,0.471,0.4713,0.4744,0.4759,0.4759,0.4837,0.4837,0,0,0.4598,0.4578,0.4608,0.4616,0.4646,0.4663,0.467,0.4706,0.4709,0.471,0.4714,0.4745,0.4759,0.4759,0.4836,0.4837,0,0,0,0.459,0.4574,0.4604,0.4613,0.4644,0.4667,0.4674,0.4707,0.4719,0.4715,0.4746,0.4759,0.4759,0.4835,0.4836,0.4877,0,0,0,0.4586,0.4571,0.4602,0.459,0.4644,0.469,0.4674,0.4715,0.4722,0.4745,0.4759,0.476,0.4835,0.4836,0.4874,0.489,0,0,0,0.4559,0.4568,0.4581,0.4589,0.464,0.4691,0.4704,0.4718,0.474,0.4759,0.476,0.4834,0.4836,0.4872,0.4886,0.491,0,0,0,0.4532,0.456,0.458,0.4628,0.4639,0.4738,0.4705,0.4766,0.4789,0.4759,0.4835,0.4836,0.4871,0.4884,0.4908,0.4743,0.474,0,0,0.4553,0.4562,0.4594,0.4615,0.4693,0.4723,0.4805,0.481,0.4804,0.4813,0.4815,0.4875,0.4886,0.491,0.4831,0.4825,0,0,0,0.4592,0.46,0.4635,0.4682,0.4761,0.4812,0.4845,0.4862,0.4881,0.4827,0.4895,0.4901,0.4914,0.481,0.4807,0.4774,0.4843,0.4843,0.4843,0.453,0.459,0.4636,0.4708,0.4777,0.4875,0.4924,0.4946,0.4935,0.4952,0.4948,0.5015,0.4906,0.4901,0.4871,0.4967,0.4967,0.4967,0.4967,0.4511,0.4529,0.461,0.4672,0.4759,0.4832,0.4959,0.498,0.5042,0.5011,0.5022,0.4877,0.4898,0.4868,0.497,0.4969,0.4969,0.4969,0.4969,0.4431,0.4455,0.4496,0.4581,0.4669,0.4797,0.4906,0.5004,0.5061,0.51,0.4969,0.4965,0.4924,0.5097,0.5097,0.5098,0.5098,0.5098,0.5098,0.4329,0.4382,0.4393,0.4495,0.4538,0.4666,0.4874,0.4951,0.4999,0.5002,0.5,0.4936,0.5054,0.5032,0.5101,0.5101,0.51,0.51,0.51,0.4262,0.4271,0.4275,0.4301,0.4411,0.4401,0.4666,0.4763,0.4882,0.4851,0.4834,0.4945,0.4913,0.4913,0.4888,0.4916,0.4916,0.4916,0.4916,0.4193,0.4207,0.415,0.4144,0.4215,0.4275,0.4195,0.4306,0.4524,0.4585,0.4747,0.4674,0.4683,0.4635,0.4642,0.4611,0.4569,0.4568,0.4568,0.4152,0.4133,0.4041,0.4027,0.4088,0.407,0.3804,0.3718,0.4186,0.456,0.4745,0.476,0.4664,0.468,0.4611,0.4623,0.4573,0,0]},{"header":{"parameterUnit":"m.s-1","parameterCategory":2,"la1":30.2992,"la2":30.254,"lo1":-89.0895,"lo2":-89.0443,"dy":0.0025,"dx":0.0025,"nx":19,"ny":19,"refTime":"2026-04-09T21:00:00:Z","depth":"0","parameterNumber":3,"parameterNumberName":"V-component_of_CURRENTS"},"data":[0,0,0,-0.0323,-0.0323,-0.0349,-0.0349,-0.0388,-0.0388,0,0,0,0,0,0,0,0,0,0,0,-0.0311,-0.0311,-0.0323,-0.0323,-0.0349,-0.0349,-0.0388,-0.0388,0,0,0,0,0,0,0,0,0,0,0,-0.0311,-0.0311,-0.031,-0.0323,-0.0349,-0.0349,-0.0388,-0.037,0,0,0,0,0,0,0,0,0,0,-0.0345,-0.0339,-0.0311,-0.031,-0.0323,-0.0349,-0.0349,-0.0369,-0.0371,-0.0373,0,-0.0366,0,-0.0373,-0.0389,-0.0389,0,0,0,-0.0336,-0.0338,-0.0332,-0.031,-0.0323,-0.0349,-0.0341,-0.037,-0.0372,-0.0376,-0.0366,-0.0368,-0.0374,-0.039,-0.039,-0.032,-0.032,0,0,-0.0334,-0.0332,-0.033,-0.0333,-0.0315,-0.034,-0.0341,-0.0371,-0.0375,-0.0366,-0.0369,-0.0374,-0.039,-0.039,-0.0321,-0.032,0,0,0,-0.0322,-0.0331,-0.0325,-0.0331,-0.0333,-0.034,-0.0342,-0.0374,-0.0367,-0.0369,-0.0375,-0.039,-0.039,-0.0322,-0.0321,-0.0202,0,0,0,-0.0321,-0.0322,-0.0324,-0.0325,-0.0332,-0.0356,-0.0344,-0.0366,-0.0369,-0.0375,-0.039,-0.039,-0.0323,-0.0322,-0.0207,-0.0117,0,0,0,-0.0312,-0.0322,-0.0317,-0.0325,-0.0329,-0.0355,-0.0352,-0.0367,-0.0372,-0.0389,-0.039,-0.0324,-0.0322,-0.0212,-0.0127,0.0003,0,0,0,-0.0321,-0.0279,-0.0317,-0.027,-0.0328,-0.0283,-0.0352,-0.0345,-0.0353,-0.039,-0.0323,-0.0321,-0.0214,-0.0133,-0.0004,0.0176,0.0222,0,0,-0.0263,-0.0273,-0.024,-0.0273,-0.0203,-0.0282,-0.0205,-0.0259,-0.0319,-0.0319,-0.0317,-0.0206,-0.0127,0.0002,0.0303,0.0346,0,0,0,-0.0217,-0.0186,-0.0174,-0.0147,-0.0144,-0.0112,-0.0171,-0.0186,-0.0197,-0.0311,-0.0194,-0.0147,-0.007,0.0023,0.0058,-0.0087,-0.0311,-0.0311,-0.0311,-0.0117,-0.0108,-0.0038,-0.0016,0.0008,0.0003,0.0031,0.0003,-0.0096,-0.0078,-0.0043,0.015,0.025,0.0278,0.0125,-0.0056,-0.0056,-0.0055,-0.0055,0.0012,0.0058,0.0077,0.0143,0.0164,0.0211,0.0226,0.0178,0.0232,0.0097,0.0165,0.0153,0.0323,0.0146,-0.0047,-0.0049,-0.005,-0.005,-0.0051,0.0086,0.0108,0.0144,0.0247,0.0328,0.034,0.05,0.0439,0.0371,0.0431,0.0525,0.0524,0.0366,0.0448,0.045,0.0451,0.0451,0.0452,0.0453,0.0132,0.0175,0.0273,0.036,0.0444,0.0564,0.0654,0.0736,0.0773,0.0715,0.0715,0.0439,0.0305,0.0282,0.0468,0.0465,0.0463,0.0462,0.0461,0.0208,0.0231,0.0397,0.0496,0.072,0.0973,0.1027,0.1246,0.1264,0.1327,0.089,0.0876,0.0871,0.0843,0.0834,0.1152,0.1152,0.1152,0.1152,0.0257,0.028,0.0538,0.0745,0.0995,0.1177,0.1623,0.173,0.1483,0.1295,0.1087,0.096,0.0939,0.0924,0.0895,0.088,0.1202,0.1202,0.1201,0.0321,0.0401,0.0613,0.083,0.1123,0.146,0.1907,0.213,0.164,0.1175,0.0852,0.085,0.0621,0.0599,0.0531,0.0501,0.046,0,0]}],[{"header":{"parameterUnit":"m.s-1","parameterCategory":2,"la1":30.2992,"la2":30.254,"lo1":-89.0895,"lo2":-89.0443,"dy":0.0025,"dx":0.0025,"nx":19,"ny":19,"refTime":"2026-04-09T21:00:00:Z","depth":"2","parameterNumber":2,"parameterNumberName":"U-component_of_CURRENTS"},"data":[0,0,0,0.3163,0.3165,0.3265,0.3266,0.3395,0.3396,0,0,0,0,0,0,0,0,0,0,0,0.3124,0.3124,0.3163,0.3165,0.3265,0.3266,0.3395,0.3396,0,0,0,0,0,0,0,0,0,0,0,0.3123,0.3124,0.3124,0.3165,0.3265,0.3266,0.3395,0.3323,0,0,0,0,0,0,0,0,0,0,0.3228,0.32,0.3124,0.3124,0.3166,0.3265,0.3266,0.332,0.3328,0.3344,0,0.3344,0,0.3367,0.3403,0.3403,0,0,0,0.3184,0.3193,0.3202,0.3124,0.3166,0.3265,0.3225,0.3325,0.3333,0.3354,0.3346,0.3351,0.3369,0.3404,0.3404,0.3511,0.3512,0,0,0.3179,0.3166,0.3195,0.3206,0.3172,0.3222,0.3228,0.333,0.3341,0.3346,0.3354,0.3371,0.3404,0.3405,0.3511,0.3511,0,0,0,0.315,0.3162,0.3169,0.3201,0.3215,0.3224,0.3232,0.3337,0.3333,0.3355,0.3373,0.3405,0.3406,0.351,0.3511,0.3554,0,0,0,0.3148,0.3144,0.3166,0.3163,0.3213,0.3282,0.3237,0.3326,0.3339,0.3372,0.3405,0.3407,0.351,0.3511,0.3552,0.3556,0,0,0,0.3123,0.3143,0.3143,0.3162,0.3195,0.328,0.3285,0.333,0.3348,0.3403,0.3407,0.351,0.3511,0.355,0.3553,0.3633,0,0,0,0.3123,0.3123,0.3142,0.3159,0.3194,0.3261,0.3284,0.3359,0.3408,0.3405,0.351,0.3511,0.355,0.3551,0.363,0.3557,0.3563,0,0,0.3122,0.3123,0.3133,0.3152,0.3202,0.325,0.3332,0.3406,0.3426,0.3479,0.3482,0.3553,0.3553,0.3632,0.3611,0.3616,0,0,0,0.3132,0.3135,0.3161,0.3188,0.3241,0.332,0.3389,0.3431,0.351,0.3454,0.356,0.3558,0.3608,0.3558,0.3562,0.3516,0.3515,0.3515,0.3515,0.3097,0.3126,0.3152,0.3202,0.3263,0.3374,0.3446,0.3509,0.3535,0.3579,0.36,0.3693,0.3639,0.3642,0.3614,0.3615,0.3615,0.3615,0.3615,0.3061,0.3052,0.3131,0.3172,0.3266,0.3347,0.3495,0.3548,0.3668,0.3647,0.3695,0.3611,0.3649,0.3619,0.3618,0.3617,0.3617,0.3617,0.3617,0.3002,0.2998,0.305,0.3113,0.3225,0.336,0.3469,0.36,0.3693,0.3749,0.3741,0.3738,0.3729,0.3805,0.3806,0.3806,0.3807,0.3807,0.3807,0.2888,0.2941,0.2961,0.3071,0.3127,0.3271,0.3484,0.3573,0.3726,0.3776,0.3776,0.3758,0.3752,0.3741,0.3813,0.3812,0.3811,0.3811,0.381,0.2769,0.2835,0.2846,0.2892,0.3021,0.3059,0.3313,0.351,0.367,0.3724,0.38,0.3798,0.3783,0.3778,0.3768,0.3843,0.3843,0.3843,0.3843,0.2701,0.2723,0.2736,0.2761,0.2824,0.2954,0.2974,0.3168,0.3459,0.3552,0.3563,0.3469,0.3476,0.3438,0.344,0.3421,0.3405,0.3404,0.3403,0.2633,0.2652,0.2628,0.2673,0.2713,0.2776,0.2714,0.2731,0.3024,0.3379,0.3411,0.3828,0.372,0.3719,0.3682,0.3677,0.3655,0,0]},{"header":{"parameterUnit":"m.s-1","parameterCategory":2,"la1":30.2992,"la2":30.254,"lo1":-89.0895,"lo2":-89.0443,"dy":0.0025,"dx":0.0025,"nx":19,"ny":19,"refTime":"2026-04-09T21:00:00:Z","depth":"2","parameterNumber":3,"parameterNumberName":"V-component_of_CURRENTS"},"data":[0,0,0,0.0227,0.0227,0.0197,0.0196,0.0115,0.0114,0,0,0,0,0,0,0,0,0,0,0,0.0237,0.0237,0.0227,0.0227,0.0197,0.0196,0.0115,0.0114,0,0,0,0,0,0,0,0,0,0,0,0.0237,0.0237,0.0237,0.0227,0.0197,0.0196,0.0115,0.0144,0,0,0,0,0,0,0,0,0,0,0.0177,0.0189,0.0237,0.0237,0.0227,0.0197,0.0196,0.0146,0.0143,0.0122,0,0.0131,0,0.0128,0.011,0.0109,0,0,0,0.0209,0.0192,0.0197,0.0237,0.0227,0.0197,0.0205,0.0144,0.014,0.0117,0.013,0.0127,0.0126,0.0109,0.0109,0.0117,0.0118,0,0,0.0211,0.0213,0.0201,0.0196,0.0235,0.0206,0.0205,0.0142,0.0136,0.0129,0.0125,0.0125,0.0109,0.0108,0.0116,0.0117,0,0,0,0.0227,0.0214,0.0221,0.0199,0.0201,0.0206,0.0204,0.0138,0.0145,0.0124,0.0124,0.0108,0.0107,0.0116,0.0117,0.0238,0,0,0,0.0227,0.0225,0.0222,0.022,0.0203,0.0173,0.0201,0.0149,0.0143,0.0124,0.0108,0.0107,0.0115,0.0116,0.0233,0.0308,0,0,0,0.0235,0.0225,0.023,0.0221,0.0217,0.0174,0.0176,0.0148,0.0143,0.0109,0.0106,0.0115,0.0116,0.0229,0.03,0.034,0,0,0,0.0225,0.0273,0.0231,0.0282,0.0218,0.026,0.0176,0.0177,0.0158,0.0108,0.0115,0.0117,0.0228,0.0295,0.0336,0.0393,0.042,0,0,0.0292,0.0281,0.0316,0.0279,0.0351,0.0262,0.0314,0.024,0.0171,0.0127,0.0128,0.0235,0.0299,0.0339,0.048,0.0504,0,0,0,0.0342,0.0369,0.0383,0.0408,0.041,0.0412,0.0337,0.0299,0.0254,0.0169,0.0231,0.0268,0.029,0.0314,0.0334,0.0124,0.0124,0.0123,0.0123,0.0429,0.0443,0.0514,0.0531,0.0545,0.0508,0.0498,0.043,0.0343,0.034,0.0364,0.0477,0.0505,0.052,0.0347,0.0347,0.0348,0.0348,0.0348,0.0552,0.0604,0.0612,0.0682,0.0677,0.0701,0.0649,0.0587,0.056,0.0472,0.0485,0.0438,0.0549,0.0358,0.0356,0.0355,0.0354,0.0353,0.0352,0.061,0.0646,0.0674,0.0771,0.0838,0.0824,0.09,0.0816,0.0688,0.0707,0.0685,0.0683,0.0551,0.0697,0.0698,0.0698,0.0699,0.0699,0.07,0.0664,0.0704,0.0787,0.0878,0.0953,0.1044,0.1047,0.1036,0.0944,0.084,0.0839,0.0594,0.0583,0.057,0.0708,0.0706,0.0705,0.0705,0.0704,0.076,0.0762,0.0898,0.098,0.1172,0.1329,0.1314,0.1293,0.1223,0.1184,0.0896,0.0888,0.0851,0.0834,0.0826,0.1023,0.1023,0.1023,0.1023,0.0812,0.0829,0.1009,0.1169,0.1356,0.147,0.1604,0.1521,0.1303,0.1137,0.1132,0.107,0.1055,0.1023,0.1001,0.0993,0.1234,0.1234,0.1235,0.0882,0.093,0.1067,0.1222,0.1447,0.1619,0.1739,0.1649,0.1328,0.124,0.114,0.1043,0.0932,0.0916,0.0844,0.0819,0.0797,0,0]}],[{"header":{"parameterUnit":"m.s-1","parameterCategory":2,"la1":30.2992,"la2":30.254,"lo1":-89.0895,"lo2":-89.0443,"dy":0.0025,"dx":0.0025,"nx":19,"ny":19,"refTime":"2026-04-09T21:00:00:Z","depth":"4","parameterNumber":2,"parameterNumberName":"U-component_of_CURRENTS"},"data":[0,0,0,0.1839,0.1844,0.2073,0.2074,0.232,0.2322,0,0,0,0,0,0,0,0,0,0,0,0.1766,0.1768,0.1839,0.1845,0.2073,0.2074,0.232,0.2322,0,0,0,0,0,0,0,0,0,0,0,0.1765,0.1767,0.1769,0.1845,0.2073,0.2074,0.2319,0.2159,0,0,0,0,0,0,0,0,0,0,0.1943,0.188,0.1767,0.177,0.1847,0.2072,0.2074,0.2152,0.2169,0.2203,0,0.225,0,0.229,0.2338,0.2338,0,0,0,0.1847,0.1865,0.1928,0.177,0.1849,0.2072,0.1971,0.2162,0.2181,0.2225,0.2254,0.2263,0.2294,0.2339,0.234,0.2559,0.256,0,0,0.1834,0.1806,0.1915,0.1941,0.1924,0.1963,0.1978,0.2174,0.2199,0.2255,0.227,0.2298,0.2341,0.2342,0.2559,0.256,0,0,0,0.1796,0.1797,0.1856,0.193,0.1975,0.197,0.1986,0.219,0.2211,0.2272,0.2301,0.2342,0.2345,0.2558,0.2559,0.2591,0,0,0,0.1789,0.1775,0.185,0.1835,0.1971,0.2092,0.1998,0.2198,0.2221,0.2299,0.2342,0.2347,0.2557,0.2559,0.2588,0.2602,0,0,0,0.1753,0.1771,0.1802,0.1833,0.1931,0.2089,0.2122,0.2204,0.2238,0.2339,0.2347,0.2557,0.2558,0.2586,0.2598,0.2694,0,0,0,0.1708,0.1745,0.1802,0.1863,0.1929,0.206,0.2121,0.2241,0.2327,0.2343,0.2557,0.2559,0.2585,0.2596,0.2691,0.2358,0,0,0,0.1716,0.1746,0.178,0.1836,0.1942,0.2028,0.216,0.2301,0.2362,0.2488,0.2494,0.2589,0.2598,0.2693,0.2459,0,0,0,0,0.1757,0.1787,0.1831,0.1916,0.2018,0.2145,0.2272,0.2346,0.2499,0.2423,0.2614,0.2619,0.2678,0.2475,0.2567,0.2567,0.2567,0.2566,0.2566,0.1729,0.1791,0.1858,0.196,0.2061,0.2238,0.2351,0.2479,0.2529,0.2606,0.2663,0.278,0.2566,0.2684,0.2685,0.2685,0.2685,0.2685,0.2685,0.1729,0.1756,0.1875,0.1964,0.2112,0.2245,0.246,0.2539,0.2734,0.272,0.2777,0.2543,0.2689,0.2688,0.2687,0.2687,0.2687,0.2687,0.2686,0.1684,0.1698,0.1787,0.1926,0.2089,0.2276,0.2455,0.2636,0.2768,0.2845,0.2686,0.2831,0.281,0.2904,0.2905,0.2905,0.2906,0.2906,0.2907,0.1579,0.1662,0.1729,0.1892,0.1996,0.2189,0.2485,0.2606,0.2789,0.2701,0.2887,0.2856,0.2848,0.2825,0.2914,0.2913,0.2912,0.2911,0.2911,0.1485,0.1547,0.163,0.1726,0.1931,0.2046,0.2353,0.251,0.2629,0.2629,0.2634,0.2646,0.2617,0.2617,0.2584,0.2605,0.2601,0.2597,0,0.1408,0.1444,0.1545,0.1643,0.1752,0.1953,0.2031,0.2209,0.2383,0.2301,0.2632,0.2632,0.2639,0.2599,0.2593,0.2548,0,0,0,0.1347,0.1397,0.1432,0.1548,0.1651,0.1809,0.2039,0.2036,0.2343,0.2355,0.2499,0.2525,0.2739,0.2937,0.2922,0.2913,0.2877,0,0]},{"header":{"parameterUnit":"m.s-1","parameterCategory":2,"la1":30.2992,"la2":30.254,"lo1":-89.0895,"lo2":-89.0443,"dy":0.0025,"dx":0.0025,"nx":19,"ny":19,"refTime":"2026-04-09T21:00:00:Z","depth":"4","parameterNumber":3,"parameterNumberName":"V-component_of_CURRENTS"},"data":[0,0,0,0.0297,0.0297,0.0282,0.0281,0.0215,0.0214,0,0,0,0,0,0,0,0,0,0,0,0.03,0.03,0.0297,0.0297,0.0282,0.0281,0.0215,0.0214,0,0,0,0,0,0,0,0,0,0,0,0.03,0.03,0.03,0.0297,0.0282,0.0281,0.0215,0.0236,0,0,0,0,0,0,0,0,0,0,0.0256,0.0269,0.03,0.03,0.0297,0.0282,0.0281,0.0237,0.0235,0.0212,0,0.0216,0,0.0218,0.021,0.0209,0,0,0,0.0286,0.0271,0.027,0.03,0.0297,0.0282,0.0286,0.0236,0.0233,0.0208,0.0216,0.0214,0.0217,0.0209,0.0209,0.0192,0.0192,0,0,0.0287,0.0291,0.0272,0.0268,0.0301,0.0286,0.0285,0.0235,0.0232,0.0215,0.0212,0.0216,0.0209,0.0208,0.0192,0.0192,0,0,0,0.0297,0.0292,0.0292,0.027,0.0274,0.0286,0.0285,0.0234,0.0235,0.0212,0.0215,0.0208,0.0208,0.0191,0.0192,0.0288,0,0,0,0.0297,0.0298,0.0293,0.0293,0.0275,0.026,0.0285,0.0239,0.0233,0.0216,0.0208,0.0207,0.0191,0.0192,0.0285,0.0342,0,0,0,0.0299,0.0298,0.03,0.0294,0.0293,0.0262,0.0259,0.0238,0.0236,0.0209,0.0207,0.0191,0.0192,0.0282,0.0336,0.0348,0,0,0,0.0298,0.0326,0.03,0.0334,0.0293,0.032,0.026,0.0265,0.0251,0.0208,0.0191,0.0192,0.0281,0.0333,0.0345,0.0361,0,0,0,0.0339,0.0331,0.0354,0.0331,0.038,0.0321,0.0356,0.0306,0.025,0.0201,0.0201,0.0286,0.0336,0.0348,0.0405,0,0,0,0,0.0372,0.039,0.04,0.0419,0.0419,0.0422,0.0371,0.034,0.0301,0.0247,0.0274,0.0303,0.0307,0.0306,0.0196,0.0196,0.0195,0.0195,0.0195,0.0428,0.0439,0.0488,0.0501,0.0512,0.0487,0.0478,0.0422,0.036,0.0355,0.0373,0.0438,0.0441,0.0352,0.0353,0.0353,0.0353,0.0354,0.0354,0.0504,0.0538,0.0554,0.0606,0.0606,0.0625,0.0576,0.0533,0.0502,0.0445,0.0443,0.0398,0.0363,0.0361,0.036,0.0359,0.0358,0.0358,0.0357,0.0538,0.056,0.0594,0.0671,0.0728,0.0719,0.0761,0.07,0.0598,0.0608,0.0565,0.0495,0.0495,0.0594,0.0595,0.0595,0.0595,0.0596,0.0596,0.0558,0.0597,0.0665,0.0746,0.0812,0.0878,0.0875,0.0847,0.0748,0.0684,0.0633,0.0519,0.0511,0.0507,0.0601,0.06,0.0599,0.0599,0.0598,0.0601,0.0622,0.0726,0.08,0.0953,0.1006,0.1016,0.0935,0.09,0.0818,0.07,0.0694,0.0655,0.0643,0.0642,0.078,0.078,0.0781,0,0.0627,0.0644,0.0789,0.0913,0.1036,0.1083,0.1077,0.1029,0.0883,0.0868,0.0866,0.0736,0.0729,0.0687,0.0677,0.0679,0,0,0,0.0662,0.0705,0.0808,0.0931,0.1074,0.1077,0.1075,0.1032,0.0917,0.0873,0.0795,0.0791,0.0722,0.0616,0.054,0.053,0.052,0,0]}]]